[[{"header":{"parameterUnit":"m.s-1","parameterCategory":1,"la1":30.2991,"la2":30.254,"lo1":-89.0895,"lo2":-89.0444,"dy":0.0017,"dx":0.0017,"nx":28,"ny":28,"refTime":"2023-10-18T21:00:00:Z","depth":0,"parameterNumber":2,"parameterNumberName":"U-component_of_WINDS"},"data":[0,0,0,0,0,0,0,0,0,0,0,0,0,0,0,0,0,0,0,0,0,0,0,0,0,0,0,0,0,0,0,0,0,0,0,0,0,0,0,0,0,0,0,0,0,0,0,0,0,0,0,0,0,0,0,0,0,0,3.1756,3.1757,0,3.1843,3.1844,3.1845,3.1824,3.1822,3.182,3.1819,3.191,3.1914,3.1918,0,0,0,0,0,0,0,0,0,0,0,0,0,3.1578,3.1581,3.1756,3.1757,3.1758,3.1843,3.1844,3.1846,3.1824,3.1822,3.182,3.1818,3.1909,3.1914,3.1918,0,0,0,0,0,0,0,0,0,0,0,0,0,3.1659,3.1582,3.1756,3.1758,3.1759,3.1843,3.1844,3.1846,3.1824,3.1822,3.1819,3.1817,3.1907,3.1913,3.1919,3.2008,0,0,3.1938,3.194,0,0,0,0,0,0,0,0,3.1655,3.1666,3.1756,3.1758,3.1759,3.182,3.1815,3.19,3.1825,3.18,3.1819,3.1816,3.1882,3.189,3.1912,3.2012,3.2016,3.1938,3.1942,3.1944,3.1946,0,0,0,0,0,0,0,3.1649,3.1662,3.1791,3.1758,3.176,3.1756,3.1765,3.1831,3.1854,3.1802,3.18,3.1811,3.1883,3.1907,3.1914,3.2017,3.1938,3.1943,3.1947,3.1949,3.2203,3.2206,0,0,0,0,0,0,3.1642,3.1657,3.1788,3.1793,3.1699,3.1762,3.1771,3.1803,3.1854,3.1859,3.1813,3.1809,3.1898,3.1907,3.1918,3.2031,3.1944,3.195,3.1953,3.22,3.2203,3.2207,0,0,0,0,0,0,3.1638,3.1653,3.1784,3.1725,3.1742,3.1767,3.1803,3.1806,3.183,3.1862,3.1866,3.1833,3.1896,3.1909,3.1987,3.2033,3.1953,3.1958,3.2196,3.2201,3.2205,3.2254,0,0,0,0,0,0,3.1633,3.1652,3.1684,3.1726,3.1745,3.1851,3.1806,3.181,3.184,3.1837,3.1882,3.1887,3.1895,3.1978,3.1993,3.204,3.1963,3.2192,3.2198,3.2204,3.2249,3.226,3.2269,0,0,0,0,0,3.1626,3.1693,3.1686,3.1702,3.1785,3.1853,3.1864,3.1871,3.1844,3.1878,3.19,3.1885,3.2025,3.1986,3.2003,3.2053,3.2189,3.2196,3.2203,3.2244,3.2258,3.2269,0,0,0,0,0,0,3.1655,3.1698,3.1691,3.1772,3.181,3.1849,3.1892,3.1885,3.1931,3.1925,3.1933,3.1944,3.2025,3.2046,3.2002,3.2145,3.2104,3.2114,3.2129,3.2142,3.2153,3.2148,3.1968,0,0,0,0,0,3.1671,3.1721,3.1757,3.1826,3.1845,3.1866,3.1895,3.1898,3.1937,3.1953,3.198,3.202,3.2074,3.2108,3.2158,3.2251,3.2264,3.2294,3.2304,3.2312,3.2323,3.2381,3.2397,3.223,3.223,3.223,0,0,3.1704,3.1734,3.1765,3.1833,3.1861,3.1917,3.1879,3.1937,3.1979,3.1962,3.2039,3.2061,3.2106,3.2194,3.2233,3.2214,3.2372,3.2321,3.2328,3.2334,3.239,3.2406,3.242,3.2234,3.2234,3.2233,0,0,3.1794,3.1819,3.1883,3.1914,3.1959,3.1974,3.1989,3.2032,3.2046,3.2123,3.2114,3.2165,3.2255,3.229,3.2319,3.2429,3.2421,3.2445,3.2502,3.2558,3.2571,3.2583,3.2629,3.2645,3.2455,3.2455,3.2455,0,3.1831,3.1912,3.1917,3.1979,3.2011,3.1999,3.2067,3.2096,3.2156,3.218,3.2156,3.2275,3.2303,3.2403,3.243,3.2452,3.2475,3.2442,3.2569,3.2581,3.2592,3.2636,3.2652,3.2458,3.2458,3.2457,3.2457,0,3.1957,3.2014,3.2061,3.2121,3.2158,3.2222,3.224,3.2278,3.2279,3.2297,3.238,3.2415,3.2476,3.2498,3.2498,3.26,3.2588,3.2566,3.2525,3.2611,3.2653,3.2669,3.2463,3.2462,3.2461,3.246,0,0,3.2067,3.2133,3.215,3.218,3.2232,3.2277,3.2343,3.2403,3.2438,3.248,3.254,3.2619,3.2602,3.2636,3.264,3.2689,3.2783,3.2663,3.2664,3.2689,3.2906,3.2926,3.2944,3.2776,3.2779,3.2782,3.2904,0,3.2166,3.2282,3.2291,3.2397,3.2453,3.2445,3.2503,3.2543,3.2563,3.2616,3.2637,3.2697,3.2666,3.2687,3.2735,3.2761,3.2828,3.2752,3.2836,3.2839,3.283,3.2965,3.2984,3.3098,3.292,3.2922,3.2924,0,3.2297,3.2347,3.2458,3.2508,3.2532,3.2584,3.2644,3.2692,3.274,3.2751,3.2792,3.2792,3.2864,3.2818,3.2922,3.2871,3.2906,3.2925,3.2929,3.2941,3.289,3.2986,3.3134,3.3153,3.2949,3.2947,3.2945,0,3.2375,3.2468,3.2549,3.2574,3.2632,3.267,3.2697,3.2741,3.2779,3.2831,3.2857,3.2917,3.2951,3.2999,3.3017,3.298,3.3122,3.3076,3.3138,3.3139,3.3171,3.317,3.3333,3.3185,3.3185,3.3184,3.3184,0,3.2487,3.2558,3.2585,3.2635,3.2716,3.2727,3.2807,3.2832,3.2873,3.2931,3.2925,3.298,3.2998,3.3057,3.3071,3.3159,3.3172,3.3188,3.3192,3.3191,3.319,3.3218,3.3213,3.3189,3.3188,3.3187,3.3186,0,3.2588,3.2608,3.2698,3.2747,3.2761,3.2819,3.2863,3.2914,3.2933,3.3007,3.3025,3.3057,3.3128,3.3149,3.3232,3.3243,3.3348,3.3341,3.3332,3.3334,3.3398,3.3394,3.3588,3.3618,3.3445,3.3447,3.3448,0,3.2661,3.2716,3.2772,3.2811,3.284,3.2901,3.2941,3.2955,3.2997,3.3059,3.3104,3.3173,3.323,3.3343,3.3376,3.3442,3.3441,3.3505,3.3451,3.3452,3.345,3.3449,3.3458,3.3516,3.3518,3.3519,3.352,0,3.2792,3.2801,3.2857,3.292,3.2968,3.3018,3.3066,3.3098,3.312,3.3169,3.3241,3.3285,3.3373,3.3445,3.3513,3.3543,3.3539,3.3537,3.3556,3.3559,3.3555,3.3565,3.3366,3.3533,3.3532,3.3531,3.353,3.353,3.2885,3.2936,3.2986,3.3052,3.309,3.3136,3.3189,3.3217,3.3277,3.335,3.3355,3.3435,3.3487,3.3578,3.3613,3.3678,3.366,3.3686,3.3694,3.3702,3.3711,3.354,3.369,3.3689,3.3689,3.3689,3.3688,0,3.3021,3.3054,3.3114,3.3183,3.3236,3.3225,3.3279,3.3326,3.3396,3.3444,3.3502,3.3589,3.3659,3.3699,3.3771,3.3816,3.3817,3.3835,3.3835,3.3844,3.3718,3.3698,3.3835,3.3834,3.3834,3.3834,3.3834,3.3834,3.3099,3.3187,3.3202,3.3312,3.3344,3.3422,3.3456,3.3501,3.354,3.3637,3.3697,3.3721,3.3769,3.3845,3.3912,3.3922,3.3951,3.3973,3.3983,3.3866,3.3851,3.3837,3.3818,3.3978,3.3978,3.4103,3.4105,3.4105]},{"header":{"parameterUnit":"m.s-1","parameterCategory":1,"la1":30.2991,"la2":30.254,"lo1":-89.0895,"lo2":-89.0444,"dy":0.0017,"dx":0.0017,"nx":28,"ny":28,"refTime":"2023-10-18T21:00:00:Z","depth":0,"parameterNumber":3,"parameterNumberName":"V-component_of_WINDS"},"data":[0,0,0,0,0,0,0,0,0,0,0,0,0,0,0,0,0,0,0,0,0,0,0,0,0,0,0,0,0,0,0,0,0,0,0,0,0,0,0,0,0,0,0,0,0,0,0,0,0,0,0,0,0,0,0,0,0,0,-3.3697,-3.3696,0,-3.3588,-3.3587,-3.3586,-3.3654,-3.3657,-3.366,-3.3663,-3.3536,-3.353,-3.3524,0,0,0,0,0,0,0,0,0,0,0,0,0,-3.395,-3.3945,-3.3697,-3.3696,-3.3695,-3.3589,-3.3587,-3.3586,-3.3653,-3.3657,-3.3661,-3.3665,-3.3538,-3.3531,-3.3523,0,0,0,0,0,0,0,0,0,0,0,0,0,-3.384,-3.3943,-3.3698,-3.3716,-3.3717,-3.3589,-3.3587,-3.3585,-3.3652,-3.3657,-3.3662,-3.3667,-3.3541,-3.3531,-3.3522,-3.3365,0,0,-3.3493,-3.3488,0,0,0,0,0,0,0,0,-3.3846,-3.3831,-3.3715,-3.3715,-3.3715,-3.364,-3.363,-3.3511,-3.3651,-3.3676,-3.3663,-3.3669,-3.3566,-3.3554,-3.3523,-3.3359,-3.3354,-3.3492,-3.3486,-3.3482,-3.3479,0,0,0,0,0,0,0,-3.3854,-3.3836,-3.3654,-3.3713,-3.3713,-3.3725,-3.3715,-3.3607,-3.3594,-3.3674,-3.3679,-3.3666,-3.3567,-3.3532,-3.352,-3.3352,-3.3492,-3.3484,-3.3478,-3.3474,-3.3052,-3.3047,0,0,0,0,0,0,-3.3862,-3.3842,-3.3657,-3.3651,-3.3795,-3.3717,-3.3705,-3.3659,-3.3596,-3.3591,-3.3662,-3.367,-3.3546,-3.3531,-3.3516,-3.3327,-3.3482,-3.3473,-3.3467,-3.3058,-3.3051,-3.3045,0,0,0,0,0,0,-3.3867,-3.3845,-3.3662,-3.3747,-3.3725,-3.3707,-3.3654,-3.3654,-3.362,-3.3587,-3.3584,-3.363,-3.3549,-3.353,-3.3403,-3.3323,-3.3469,-3.346,-3.3064,-3.3056,-3.3048,-3.2948,0,0,0,0,0,0,-3.3874,-3.3846,-3.379,-3.3746,-3.372,-3.3554,-3.365,-3.3649,-3.3605,-3.3614,-3.3556,-3.3551,-3.3552,-3.3417,-3.3393,-3.3313,-3.3452,-3.3071,-3.3061,-3.3051,-3.2958,-3.2937,-3.2919,0,0,0,0,0,-3.3883,-3.3763,-3.3787,-3.3764,-3.365,-3.355,-3.3534,-3.3542,-3.3598,-3.3539,-3.3518,-3.3552,-3.3337,-3.3404,-3.3378,-3.3292,-3.3076,-3.3064,-3.3052,-3.2966,-3.2941,-3.292,0,0,0,0,0,0,-3.3791,-3.3757,-3.3783,-3.3646,-3.3601,-3.3561,-3.3487,-3.3515,-3.3449,-3.346,-3.3468,-3.3454,-3.3322,-3.3295,-3.337,-3.3137,-3.3215,-3.3197,-3.3159,-3.3134,-3.3115,-3.3122,-3.3444,0,0,0,0,0,-3.3757,-3.3683,-3.3655,-3.3536,-3.3513,-3.3504,-3.346,-3.3471,-3.3422,-3.3402,-3.3372,-3.3319,-3.3239,-3.3186,-3.3111,-3.2956,-3.2942,-3.2885,-3.2865,-3.285,-3.2832,-3.2746,-3.2719,-3.3005,-3.3005,-3.3006,0,0,-3.3681,-3.3653,-3.3605,-3.3517,-3.3484,-3.3402,-3.3487,-3.3397,-3.3335,-3.3386,-3.3266,-3.3242,-3.3183,-3.3042,-3.2977,-3.3015,-3.2751,-3.2834,-3.2822,-3.2813,-3.273,-3.2703,-3.2679,-3.2997,-3.2999,-3.3,0,0,-3.3502,-3.3475,-3.3373,-3.3339,-3.3289,-3.3284,-3.326,-3.3216,-3.3204,-3.3085,-3.3121,-3.3045,-3.2909,-3.2865,-3.2825,-3.2632,-3.2659,-3.2607,-3.2503,-3.2419,-3.2396,-3.2376,-3.2304,-3.2278,-3.2591,-3.259,-3.259,0,-3.3412,-3.3296,-3.3315,-3.3224,-3.3182,-3.3232,-3.3125,-3.309,-3.3015,-3.2983,-3.3028,-3.2858,-3.2822,-3.267,-3.2623,-3.259,-3.2559,-3.2611,-3.24,-3.2379,-3.2361,-3.2291,-3.2264,-3.2584,-3.2585,-3.2585,-3.2586,0,-3.3187,-3.3106,-3.3029,-3.2962,-3.2912,-3.2813,-3.2813,-3.276,-3.2775,-3.2764,-3.264,-3.26,-3.2517,-3.2483,-3.2495,-3.2331,-3.2356,-3.24,-3.2477,-3.2327,-3.2262,-3.2235,-3.2575,-3.2577,-3.2579,-3.2581,0,0,-3.2942,-3.2891,-3.2861,-3.2831,-3.2781,-3.2716,-3.2618,-3.2543,-3.2495,-3.2443,-3.2358,-3.2243,-3.2284,-3.2238,-3.2246,-3.2173,-3.2018,-3.2226,-3.2224,-3.2185,-3.1831,-3.1795,-3.1765,-3.2039,-3.2034,-3.203,-3.1835,0,-3.2758,-3.2593,-3.2608,-3.2449,-3.2372,-3.2419,-3.2333,-3.2291,-3.2278,-3.2207,-3.2192,-3.2109,-3.2172,-3.2144,-3.2074,-3.2052,-3.1946,-3.2067,-3.1954,-3.195,-3.1963,-3.1731,-3.1693,-3.151,-3.181,-3.1806,-3.1803,0,-3.2519,-3.2464,-3.2299,-3.2261,-3.2229,-3.2152,-3.2084,-3.2018,-3.1969,-3.1965,-3.1916,-3.1937,-3.1833,-3.1918,-3.1773,-3.1854,-3.1809,-3.1792,-3.1785,-3.177,-3.1864,-3.1706,-3.1452,-3.1423,-3.1763,-3.1766,-3.1769,0,-3.2352,-3.2237,-3.2123,-3.2096,-3.2049,-3.1994,-3.1971,-3.1928,-3.1882,-3.1821,-3.179,-3.1716,-3.1674,-3.1614,-3.1612,-3.1675,-3.1465,-3.1549,-3.1453,-3.1453,-3.1403,-3.1405,-3.1134,-3.1381,-3.1382,-3.1382,-3.1383,0,-3.2141,-3.2037,-3.2048,-3.1977,-3.1861,-3.1879,-3.1761,-3.1744,-3.1706,-3.1629,-3.1665,-3.1591,-3.1596,-3.152,-3.1518,-3.1396,-3.1377,-3.1367,-3.1367,-3.1362,-3.1362,-3.1328,-3.1339,-3.1375,-3.1377,-3.1378,-3.1379,0,-3.1933,-3.1937,-3.1816,-3.1784,-3.1773,-3.1688,-3.1659,-3.1589,-3.1583,-3.1484,-3.1462,-3.1448,-3.1361,-3.1356,-3.1253,-3.1251,-3.1103,-3.1118,-3.112,-3.1121,-3.1024,-3.1032,-3.0718,-3.0676,-3.0955,-3.0952,-3.095,0,-3.1797,-3.1719,-3.168,-3.1634,-3.1609,-3.1534,-3.1488,-3.1502,-3.1452,-3.1392,-3.1329,-3.1246,-3.118,-3.1037,-3.1014,-3.0936,-3.0947,-3.0843,-3.0935,-3.0931,-3.094,-3.0943,-3.0934,-3.0823,-3.082,-3.0817,-3.0815,0,-3.1552,-3.1558,-3.1494,-3.143,-3.1376,-3.1324,-3.1277,-3.1236,-3.1244,-3.1185,-3.1099,-3.1049,-3.0947,-3.0862,-3.0786,-3.0757,-3.0784,-3.0788,-3.076,-3.0751,-3.0754,-3.0747,-3.1066,-3.0793,-3.0795,-3.0797,-3.0798,-3.0799,-3.1372,-3.1305,-3.1267,-3.1194,-3.1161,-3.1117,-3.105,-3.1037,-3.0967,-3.0889,-3.0901,-3.0804,-3.0756,-3.0657,-3.0623,-3.0544,-3.0578,-3.054,-3.0529,-3.0518,-3.0506,-3.0772,-3.053,-3.0531,-3.0531,-3.0532,-3.0532,0,-3.1126,-3.1106,-3.1039,-3.0974,-3.0915,-3.0955,-3.0905,-3.0851,-3.0767,-3.0723,-3.066,-3.0559,-3.0478,-3.0451,-3.0371,-3.0312,-3.0323,-3.029,-3.0292,-3.0284,-3.0482,-3.0512,-3.0283,-3.0283,-3.0283,-3.0283,-3.0283,-3.0283,-3.099,-3.0878,-3.088,-3.075,-3.0729,-3.0639,-3.0606,-3.0564,-3.0529,-3.0417,-3.0352,-3.0338,-3.0299,-3.0217,-3.0142,-3.0136,-3.0103,-3.0063,-3.0062,-3.0246,-3.027,-3.0294,-3.0322,-3.0057,-3.0057,-2.987,-2.9868,-2.9867]}]]